Time,TemperatureF,DewpointF,PressureIn,WindDirection,WindDirectionDegrees,WindSpeedMPH,WindSpeedGustMPH,Humidity,HourlyPrecipIn,Conditions,Clouds,dailyrainin,SoftwareType,DateUTC
2015-04-27 00:02:00,39.4,31.8,29.97,NNE,18,0.0,-999.0,74,-99.99,,,0.04,meteohub,2015-04-27 05:02:00,
2015-04-27 00:07:00,39.0,31.8,29.97,NNE,18,0.0,-999.0,75,-99.99,,,0.04,meteohub,2015-04-27 05:07:00,
2015-04-27 00:12:00,38.5,31.6,29.97,NNE,18,0.0,-999.0,76,-99.99,,,0.04,meteohub,2015-04-27 05:12:00,
2015-04-27 00:17:00,38.3,31.6,29.96,NNE,18,0.0,-999.0,77,-99.99,,,0.04,meteohub,2015-04-27 05:17:00,
2015-04-27 00:22:00,37.9,31.5,29.96,NNE,18,0.0,-999.0,77,-99.99,,,0.04,meteohub,2015-04-27 05:22:00,
2015-04-27 00:27:00,37.8,31.5,29.96,NNE,18,0.0,-999.0,78,-99.99,,,0.04,meteohub,2015-04-27 05:27:00,
2015-04-27 00:32:00,37.8,31.5,29.96,NNE,18,0.0,-999.0,78,-99.99,,,0.04,meteohub,2015-04-27 05:32:00,
2015-04-27 00:37:00,37.6,31.6,29.96,NNE,18,0.0,-999.0,79,-99.99,,,0.04,meteohub,2015-04-27 05:37:00,
2015-04-27 00:42:00,37.4,31.5,29.96,NNE,16,0.0,-999.0,79,-99.99,,,0.04,meteohub,2015-04-27 05:42:00,
2015-04-27 00:47:00,37.0,31.5,29.96,NNE,15,0.0,-999.0,80,-99.99,,,0.04,meteohub,2015-04-27 05:47:00,
2015-04-27 00:52:00,37.0,31.8,29.96,NNE,15,0.0,-999.0,81,-99.99,,,0.04,meteohub,2015-04-27 05:52:00,
2015-04-27 00:57:00,36.9,31.8,29.96,NNE,16,0.0,-999.0,82,-99.99,,,0.04,meteohub,2015-04-27 05:57:00,
2015-04-27 01:02:00,36.9,31.8,29.96,NNE,15,0.0,-999.0,82,-99.99,,,0.04,meteohub,2015-04-27 06:02:00,
2015-04-27 01:12:00,37.2,32.2,29.96,West,273,0.0,-999.0,82,-99.99,,,0.04,meteohub,2015-04-27 06:12:00,
2015-04-27 01:17:00,37.6,32.4,29.96,West,264,1.0,-999.0,81,-99.99,,,0.04,meteohub,2015-04-27 06:17:00,
2015-04-27 01:22:00,37.8,32.5,29.96,WNW,285,1.0,-999.0,81,-99.99,,,0.04,meteohub,2015-04-27 06:22:00,
2015-04-27 01:27:00,37.9,32.7,29.96,West,264,1.0,-999.0,81,-99.99,,,0.04,meteohub,2015-04-27 06:27:00,
2015-04-27 01:32:00,37.9,32.4,29.96,West,266,1.0,-999.0,80,-99.99,,,0.04,meteohub,2015-04-27 06:32:00,
2015-04-27 01:37:00,37.9,32.7,29.96,West,276,1.0,-999.0,81,-99.99,,,0.04,meteohub,2015-04-27 06:37:00,
2015-04-27 01:42:00,37.9,32.7,29.95,West,276,1.0,-999.0,81,-99.99,,,0.04,meteohub,2015-04-27 06:42:00,
2015-04-27 01:47:00,38.1,32.5,29.95,West,276,1.0,-999.0,80,-99.99,,,0.04,meteohub,2015-04-27 06:47:00,
2015-04-27 01:52:00,38.1,32.5,29.95,West,276,1.0,-999.0,80,-99.99,,,0.04,meteohub,2015-04-27 06:52:00,
2015-04-27 01:57:00,38.1,32.5,29.95,West,276,0.0,-999.0,80,-99.99,,,0.04,meteohub,2015-04-27 06:57:00,
2015-04-27 02:02:00,38.1,32.5,29.95,WSW,256,1.0,-999.0,80,-99.99,,,0.04,meteohub,2015-04-27 07:02:00,
2015-04-27 02:07:00,38.3,32.7,29.95,West,276,1.0,-999.0,80,-99.99,,,0.04,meteohub,2015-04-27 07:07:00,
2015-04-27 02:11:00,38.3,32.7,29.95,West,277,0.0,-999.0,80,-99.99,,,0.04,meteohub,2015-04-27 07:11:00,
2015-04-27 02:16:00,38.5,32.9,29.95,West,277,1.0,-999.0,80,-99.99,,,0.04,meteohub,2015-04-27 07:16:00,
2015-04-27 02:21:00,38.7,33.1,29.95,NW,311,1.0,-999.0,80,-99.99,,,0.04,meteohub,2015-04-27 07:21:00,
2015-04-27 02:26:00,38.8,33.3,29.95,West,281,1.0,-999.0,80,-99.99,,,0.04,meteohub,2015-04-27 07:26:00,
2015-04-27 02:31:00,38.8,33.3,29.95,WNW,287,0.0,-999.0,80,-99.99,,,0.04,meteohub,2015-04-27 07:31:00,
2015-04-27 02:36:00,39.0,33.6,29.95,WNW,294,1.0,-999.0,81,-99.99,,,0.04,meteohub,2015-04-27 07:36:00,
2015-04-27 02:41:00,39.2,33.8,29.95,WNW,297,2.0,-999.0,81,-99.99,,,0.04,meteohub,2015-04-27 07:41:00,
2015-04-27 02:46:00,39.4,33.8,29.95,NW,308,2.0,-999.0,80,-99.99,,,0.04,meteohub,2015-04-27 07:46:00,
2015-04-27 02:51:00,39.6,34.0,29.95,WNW,283,3.0,-999.0,80,-99.99,,,0.04,meteohub,2015-04-27 07:51:00,
2015-04-27 02:56:00,39.6,34.0,29.95,NW,304,1.0,-999.0,80,-99.99,,,0.04,meteohub,2015-04-27 07:56:00,
2015-04-27 03:01:00,39.7,34.2,29.95,NW,319,4.0,-999.0,80,-99.99,,,0.04,meteohub,2015-04-27 08:01:00,
2015-04-27 03:06:00,39.7,34.2,29.95,NW,304,3.0,-999.0,80,-99.99,,,0.04,meteohub,2015-04-27 08:06:00,
2015-04-27 03:11:00,39.9,34.0,29.95,NNW,330,3.0,-999.0,79,-99.99,,,0.04,meteohub,2015-04-27 08:11:00,
2015-04-27 03:16:00,39.9,34.0,29.95,WNW,290,2.0,-999.0,79,-99.99,,,0.04,meteohub,2015-04-27 08:16:00,
2015-04-27 03:21:00,39.9,34.0,29.95,WNW,287,3.0,-999.0,79,-99.99,,,0.04,meteohub,2015-04-27 08:21:00,
2015-04-27 03:26:00,40.1,33.8,29.95,WNW,287,4.0,-999.0,78,-99.99,,,0.04,meteohub,2015-04-27 08:26:00,
2015-04-27 03:31:00,40.1,33.8,29.95,NW,322,3.0,-999.0,78,-99.99,,,0.04,meteohub,2015-04-27 08:31:00,
2015-04-27 03:36:00,40.1,34.2,29.95,WNW,287,2.0,-999.0,79,-99.99,,,0.04,meteohub,2015-04-27 08:36:00,
2015-04-27 03:41:00,40.3,34.3,29.95,WNW,291,1.0,-999.0,79,-99.99,,,0.04,meteohub,2015-04-27 08:41:00,
2015-04-27 03:46:00,40.3,34.0,29.95,WNW,285,2.0,-999.0,78,-99.99,,,0.04,meteohub,2015-04-27 08:46:00,
2015-04-27 03:51:00,40.5,34.2,29.95,NW,318,1.0,-999.0,78,-99.99,,,0.04,meteohub,2015-04-27 08:51:00,
2015-04-27 03:56:00,40.5,34.2,29.95,NNW,329,2.0,-999.0,78,-99.99,,,0.04,meteohub,2015-04-27 08:56:00,
2015-04-27 04:01:00,40.6,34.3,29.95,NW,319,2.0,-999.0,78,-99.99,,,0.04,meteohub,2015-04-27 09:01:00,
2015-04-27 04:06:00,40.6,34.3,29.95,NNW,336,1.0,-999.0,78,-99.99,,,0.04,meteohub,2015-04-27 09:06:00,
2015-04-27 04:11:00,40.6,34.3,29.95,NW,326,2.0,-999.0,78,-99.99,,,0.04,meteohub,2015-04-27 09:11:00,
2015-04-27 04:16:00,40.6,34.3,29.95,WNW,295,4.0,-999.0,78,-99.99,,,0.04,meteohub,2015-04-27 09:16:00,
2015-04-27 04:21:00,40.6,34.3,29.95,WSW,256,1.0,-999.0,78,-99.99,,,0.04,meteohub,2015-04-27 09:21:00,
2015-04-27 04:26:00,40.6,34.3,29.95,NNW,327,4.0,-999.0,78,-99.99,,,0.04,meteohub,2015-04-27 09:26:00,
2015-04-27 04:31:00,40.6,34.0,29.95,NW,305,2.0,-999.0,77,-99.99,,,0.04,meteohub,2015-04-27 09:31:00,
2015-04-27 04:36:00,40.6,34.0,29.95,NNW,332,2.0,-999.0,77,-99.99,,,0.04,meteohub,2015-04-27 09:36:00,
2015-04-27 04:42:00,40.6,34.0,29.95,NNW,336,2.0,-999.0,77,-99.99,,,0.04,meteohub,2015-04-27 09:42:00,
2015-04-27 04:47:00,40.8,34.2,29.95,NW,308,2.0,-999.0,77,-99.99,,,0.04,meteohub,2015-04-27 09:47:00,
2015-04-27 04:52:00,40.8,34.2,29.95,NNW,333,3.0,-999.0,77,-99.99,,,0.04,meteohub,2015-04-27 09:52:00,
2015-04-27 04:57:00,40.8,34.2,29.95,NW,305,2.0,-999.0,77,-99.99,,,0.04,meteohub,2015-04-27 09:57:00,
2015-04-27 05:02:00,40.8,34.2,29.95,North,349,3.0,-999.0,77,-99.99,,,0.04,meteohub,2015-04-27 10:02:00,
2015-04-27 05:07:00,40.8,34.2,29.95,NW,314,4.0,-999.0,77,-99.99,,,0.04,meteohub,2015-04-27 10:07:00,
2015-04-27 05:12:00,39.7,33.1,29.95,NW,315,3.0,-999.0,77,-99.99,,,0.04,meteohub,2015-04-27 10:12:00,
2015-04-27 05:17:00,39.7,33.1,29.95,NW,315,3.0,-999.0,77,-99.99,,,-99.99,meteohub,2015-04-27 10:17:00,
2015-04-27 06:53:00,40.6,36.1,29.97,North,-9999,-999.9,-999.0,84,-99.99,,,-99.99,meteohub,2015-04-27 11:53:00,
2015-04-27 06:58:00,40.6,36.5,29.97,North,-9999,-999.9,-999.0,85,-99.99,,,-99.99,meteohub,2015-04-27 11:58:00,
2015-04-27 07:03:00,40.6,36.5,29.97,NE,39,5.0,-999.0,85,-99.99,,,-99.99,meteohub,2015-04-27 12:03:00,
2015-04-27 07:08:00,40.6,36.5,29.97,NW,322,4.0,-999.0,85,-99.99,,,-99.99,meteohub,2015-04-27 12:08:00,
2015-04-27 07:13:00,40.6,36.5,29.97,North,357,5.0,-999.0,85,-99.99,,,-99.99,meteohub,2015-04-27 12:13:00,
2015-04-27 07:18:00,40.6,36.5,29.98,NE,36,5.0,-999.0,85,-99.99,,,-99.99,meteohub,2015-04-27 12:18:00,
2015-04-27 07:23:00,40.6,36.5,29.97,NE,46,0.0,-999.0,85,-99.99,,,-99.99,meteohub,2015-04-27 12:23:00,
2015-04-27 07:28:00,40.6,36.5,29.97,North,9,3.0,-999.0,85,-99.99,,,-99.99,meteohub,2015-04-27 12:28:00,
2015-04-27 07:33:00,40.6,36.5,29.97,NE,43,5.0,-999.0,85,-99.99,,,-99.99,meteohub,2015-04-27 12:33:00,
2015-04-27 07:38:00,40.6,36.5,29.97,NNE,26,4.0,-999.0,85,-99.99,,,-99.99,meteohub,2015-04-27 12:38:00,
2015-04-27 07:43:00,40.8,36.3,29.97,NE,46,3.0,-999.0,84,-99.99,,,-99.99,meteohub,2015-04-27 12:43:00,
2015-04-27 07:49:00,41.2,37.0,29.97,NNW,327,3.0,-999.0,85,-99.99,,,-99.99,meteohub,2015-04-27 12:49:00,
2015-04-27 07:54:00,41.2,36.7,29.98,NNE,22,6.0,-999.0,84,-99.99,,,-99.99,meteohub,2015-04-27 12:54:00,
2015-04-27 07:59:00,41.0,36.5,29.98,North,353,3.0,-999.0,84,-99.99,,,-99.99,meteohub,2015-04-27 12:59:00,
2015-04-27 08:04:00,41.0,36.5,29.98,NE,46,4.0,-999.0,84,-99.99,,,-99.99,meteohub,2015-04-27 13:04:00,
2015-04-27 08:09:00,41.2,37.0,29.98,East,88,3.0,-999.0,85,-99.99,,,-99.99,meteohub,2015-04-27 13:09:00,
2015-04-27 08:14:00,40.8,36.7,29.99,ENE,74,4.0,-999.0,85,-99.99,,,-99.99,meteohub,2015-04-27 13:14:00,
2015-04-27 08:19:00,40.6,36.5,29.99,ENE,58,4.0,-999.0,85,-99.99,,,-99.99,meteohub,2015-04-27 13:19:00,
2015-04-27 08:24:00,40.6,36.9,29.99,NNE,29,5.0,-999.0,86,-99.99,,,-99.99,meteohub,2015-04-27 13:24:00,
2015-04-27 08:29:00,40.6,36.9,29.99,NE,53,4.0,-999.0,86,-99.99,,,-99.99,meteohub,2015-04-27 13:29:00,
2015-04-27 08:34:00,40.8,36.7,29.99,North,356,3.0,-999.0,85,-99.99,,,-99.99,meteohub,2015-04-27 13:34:00,
2015-04-27 08:39:00,41.2,36.7,29.99,NNE,25,6.0,-999.0,84,-99.99,,,-99.99,meteohub,2015-04-27 13:39:00,
2015-04-27 08:44:00,41.4,36.5,29.99,NNW,344,4.0,-999.0,83,-99.99,,,-99.99,meteohub,2015-04-27 13:44:00,
2015-04-27 08:49:00,41.5,36.5,29.99,North,354,4.0,-999.0,82,-99.99,,,-99.99,meteohub,2015-04-27 13:49:00,
2015-04-27 08:54:00,41.5,36.5,29.99,NNE,18,7.0,-999.0,82,-99.99,,,-99.99,meteohub,2015-04-27 13:54:00,
2015-04-27 08:59:00,41.5,36.5,29.99,NE,46,6.0,-999.0,82,-99.99,,,-99.99,meteohub,2015-04-27 13:59:00,
2015-04-27 09:04:00,41.7,36.7,30.00,NNW,338,0.0,-999.0,82,-99.99,,,-99.99,meteohub,2015-04-27 14:04:00,
2015-04-27 09:09:00,42.4,37.4,30.00,NW,325,4.0,-999.0,82,-99.99,,,-99.99,meteohub,2015-04-27 14:09:00,
2015-04-27 09:14:00,43.0,36.9,30.00,WNW,291,5.0,-999.0,79,-99.99,,,-99.99,meteohub,2015-04-27 14:14:00,
2015-04-27 09:19:00,42.6,36.3,30.01,NE,36,7.0,-999.0,78,-99.99,,,-99.99,meteohub,2015-04-27 14:19:00,
2015-04-27 09:24:00,42.4,36.1,30.01,NNW,348,6.0,-999.0,78,-99.99,,,-99.99,meteohub,2015-04-27 14:24:00,
2015-04-27 09:29:00,43.0,36.9,30.01,NW,318,4.0,-999.0,79,-99.99,,,-99.99,meteohub,2015-04-27 14:29:00,